Orbital Elements at Epoch 2459000.5 (2020-May-31.0) TDB
Reference: JPL 16 (heliocentric ecliptic J2000)
Element | Value | Uncertainty (1-sigma) | Units |
e | .1180502232391298 | 8.028e-08 | |
a | 3.089207959217279 | 4.5106e-08 | au |
q | 2.724526269999582 | 2.6292e-07 | au |
i | 28.18906650500677 | 7.1718e-06 | deg |
node | 154.9669290705078 | 1.4403e-05 | deg |
peri | 34.87970675211363 | 3.2372e-05 | deg |
M | 271.1846326729083 | 3.0504e-05 | deg |
tp | 2459489.776954057291 (2021-Oct-02.27695406) | 0.00017408 | TDB |
period | 1983.212013433806 5.43 | 4.3436e-05 1.189e-07 | d yr |
n | .1815237087923256 | 3.9757e-09 | deg/d |
Q | 3.453889648434975 | 5.0431e-08 | au |
|
| | Orbit Determination Parameters
Additional Information
|